Tracking 30743 objects as of 20-Jun-2025
HD Live streaming from Space Station
objects crossing your sky now

THORAD AGENA D DEB

Track THORAD AGENA D DEB now!
10-day predictions


NORAD ID: 42523
Int'l Code: 1970-025SD
Perigee: 964.6 km
Apogee: 1,005.9 km
Inclination: 100.0 °
Period: 104.7 minutes
Semi major axis: 7356 km
RCS: Unknown
Launch date: April 8, 1970
Source: United States (US)
Launch site: AIR FORCE WESTERN TEST RANGE (AFWTR)

Note: This is SATELLITE DEBRIS
Your satellite tracking list
Your tracking list is empty




NASA's NSSDC Master Catalog

Two Line Element Set (TLE):
1 42523U 70025SD  25171.50249139  .00000479  00000-0  54135-3 0  9990
2 42523  99.9639 269.6807 0028041 112.8015 311.2111 13.76000387580585
Source of the keplerian elements: AFSPC